EWR302 FMCH-FMCZ

Flight info

Callsign EWR302
Flight time 0h 42m
Altitude 13000
Route CH401 DCT MOHLI DCT LOGMI DCT FCZ16 DCT FD16 DCT CZ510
Aircraft AT76/M-SDFGIRY/S

Departure

Time 2026-04-30 11:44
Airport Prince Said Ibrahim International Airport (FMCH)

Arrival

Time 2026-04-30 12:27
Airport Dzaoudzi Pamandzi International Airport (FMCZ)
Time Latitude Longitude Altitude Speed Heading
2026-04-30 11:33 -11.53445 43.27429 76 ft 0 kts 220°
2026-04-30 11:38 -11.53445 43.27428 76 ft 1 kts 220°
2026-04-30 11:38 -11.53460 43.27415 76 ft 5 kts 220°
2026-04-30 11:38 -11.53494 43.27391 76 ft 7 kts 205°
2026-04-30 11:39 -11.53547 43.27379 73 ft 9 kts 191°
2026-04-30 11:39 -11.53612 43.27367 73 ft 10 kts 191°
2026-04-30 11:39 -11.53677 43.27342 75 ft 10 kts 237°
2026-04-30 11:39 -11.53673 43.27275 72 ft 10 kts 281°
2026-04-30 11:40 -11.53660 43.27205 67 ft 10 kts 281°
2026-04-30 11:40 -11.53640 43.27139 68 ft 7 kts 322°
2026-04-30 11:40 -11.53606 43.27143 75 ft 6 kts 12°
2026-04-30 11:40 -11.53484 43.27165 67 ft 28 kts
2026-04-30 11:41 -11.53244 43.27208 74 ft 42 kts
2026-04-30 11:41 -11.52937 43.27263 72 ft 42 kts 11°
2026-04-30 11:41 -11.52671 43.27311 74 ft 36 kts
2026-04-30 11:41 -11.52450 43.27349 71 ft 29 kts
2026-04-30 11:42 -11.52274 43.27381 71 ft 22 kts
2026-04-30 11:42 -11.52151 43.27423 74 ft 16 kts 43°
2026-04-30 11:42 -11.52077 43.27432 76 ft 9 kts 286°
2026-04-30 11:42 -11.52112 43.27408 69 ft 7 kts 193°
2026-04-30 11:43 -11.52165 43.27396 75 ft 9 kts 192°
2026-04-30 11:43 -11.52271 43.27377 74 ft 37 kts 189°
2026-04-30 11:43 -11.52697 43.27304 69 ft 89 kts 190°
2026-04-30 11:43 -11.53480 43.27159 85 ft 137 kts 191°
2026-04-30 11:44 -11.54474 43.26994 455 ft 145 kts 189°
2026-04-30 11:44 -11.55428 43.26778 1094 ft 139 kts 204°
2026-04-30 11:44 -11.56203 43.26193 1667 ft 139 kts 231°
2026-04-30 11:44 -11.56695 43.25366 2255 ft 136 kts 246°
2026-04-30 11:45 -11.56701 43.24391 2549 ft 156 kts 303°
2026-04-30 11:45 -11.55802 43.24034 3183 ft 138 kts 22°
2026-04-30 11:45 -11.55209 43.24757 3684 ft 142 kts 76°
2026-04-30 11:45 -11.55202 43.25704 4461 ft 122 kts 99°
2026-04-30 11:46 -11.55532 43.26478 4950 ft 124 kts 133°
2026-04-30 11:46 -11.56109 43.27138 5468 ft 125 kts 125°
2026-04-30 11:46 -11.56574 43.27882 5990 ft 124 kts 121°
2026-04-30 11:46 -11.57027 43.28642 6428 ft 132 kts 121°
2026-04-30 11:47 -11.57360 43.29212 6537 ft 149 kts 119°
2026-04-30 11:47 -11.57912 43.30154 6917 ft 160 kts 121°
2026-04-30 11:47 -11.58513 43.31133 7405 ft 163 kts 121°
2026-04-30 11:47 -11.59324 43.32438 8145 ft 165 kts 121°
2026-04-30 11:48 -11.59738 43.33101 8522 ft 165 kts 121°
2026-04-30 11:48 -11.60374 43.34116 8970 ft 171 kts 121°
2026-04-30 11:48 -11.61019 43.35141 9508 ft 173 kts 121°
2026-04-30 11:48 -11.61667 43.36175 10067 ft 173 kts 121°
2026-04-30 11:49 -11.62321 43.37218 10542 ft 179 kts 121°
2026-04-30 11:49 -11.63003 43.38305 11027 ft 182 kts 121°
2026-04-30 11:49 -11.63688 43.39395 11572 ft 183 kts 121°
2026-04-30 11:49 -11.64371 43.40482 12067 ft 185 kts 121°
2026-04-30 11:50 -11.65064 43.41585 12569 ft 186 kts 121°
2026-04-30 11:50 -11.65780 43.42723 12971 ft 192 kts 121°
2026-04-30 11:50 -11.66507 43.43878 13439 ft 194 kts 121°
2026-04-30 11:50 -11.67231 43.45031 13937 ft 193 kts 121°
2026-04-30 11:51 -11.67957 43.46190 14398 ft 194 kts 121°
2026-04-30 11:51 -11.68686 43.47350 14803 ft 199 kts 121°
2026-04-30 11:51 -11.69440 43.48552 15165 ft 203 kts 121°
2026-04-30 11:51 -11.70201 43.49762 15634 ft 202 kts 121°
2026-04-30 11:52 -11.70959 43.50969 16068 ft 202 kts 121°
2026-04-30 11:52 -11.71717 43.52176 16487 ft 202 kts 120°
2026-04-30 11:52 -11.72476 43.53388 16854 ft 206 kts 121°
2026-04-30 11:52 -11.73279 43.54664 16945 ft 221 kts 121°
2026-04-30 11:53 -11.74124 43.56004 16984 ft 236 kts 121°
2026-04-30 11:53 -11.75040 43.57465 17000 ft 249 kts 121°
2026-04-30 11:53 -11.75987 43.58979 17005 ft 256 kts 121°
2026-04-30 11:53 -11.76943 43.60497 17004 ft 252 kts 121°
2026-04-30 11:54 -11.77885 43.61997 17004 ft 250 kts 121°
2026-04-30 11:54 -11.78812 43.63482 17005 ft 247 kts 121°
2026-04-30 11:54 -11.79736 43.64962 17005 ft 246 kts 121°
2026-04-30 11:54 -11.80654 43.66427 17006 ft 245 kts 121°
2026-04-30 11:55 -11.81569 43.67888 17006 ft 244 kts 121°
2026-04-30 11:55 -11.82472 43.69332 17007 ft 243 kts 121°
2026-04-30 11:55 -11.83382 43.70779 17008 ft 242 kts 121°
2026-04-30 11:55 -11.84292 43.72231 17008 ft 242 kts 121°
2026-04-30 11:56 -11.85178 43.73648 17009 ft 241 kts 121°
2026-04-30 11:56 -11.86088 43.75105 17009 ft 241 kts 121°
2026-04-30 11:56 -11.86966 43.76504 17009 ft 240 kts 121°
2026-04-30 11:56 -11.87878 43.77959 17009 ft 240 kts 121°
2026-04-30 11:57 -11.88788 43.79415 17009 ft 240 kts 121°
2026-04-30 11:57 -11.89689 43.80851 17009 ft 240 kts 121°
2026-04-30 11:57 -11.90586 43.82284 17009 ft 240 kts 121°
2026-04-30 11:57 -11.91482 43.83719 17009 ft 240 kts 121°
2026-04-30 11:58 -11.92378 43.85152 17009 ft 239 kts 121°
2026-04-30 11:58 -11.93280 43.86588 17009 ft 240 kts 121°
2026-04-30 11:58 -11.94158 43.87990 17009 ft 240 kts 121°
2026-04-30 11:58 -11.95071 43.89455 17009 ft 239 kts 121°
2026-04-30 11:59 -11.95960 43.90873 17010 ft 239 kts 121°
2026-04-30 11:59 -11.96866 43.92325 17009 ft 239 kts 121°
2026-04-30 11:59 -11.97751 43.93739 17009 ft 239 kts 121°
2026-04-30 11:59 -11.98644 43.95170 17009 ft 239 kts 121°
2026-04-30 12:00 -11.99538 43.96603 17009 ft 239 kts 121°
2026-04-30 12:00 -12.00436 43.98036 17009 ft 239 kts 121°
2026-04-30 12:00 -12.01329 43.99466 17009 ft 239 kts 121°
2026-04-30 12:00 -12.02223 44.00898 17009 ft 239 kts 121°
2026-04-30 12:01 -12.03118 44.02330 17009 ft 239 kts 121°
2026-04-30 12:01 -12.04015 44.03764 17009 ft 239 kts 121°
2026-04-30 12:01 -12.04907 44.05195 17009 ft 239 kts 121°
2026-04-30 12:01 -12.05802 44.06626 17009 ft 239 kts 121°
2026-04-30 12:02 -12.06697 44.08059 17009 ft 239 kts 121°
2026-04-30 12:02 -12.07588 44.09490 17010 ft 239 kts 121°
2026-04-30 12:02 -12.08481 44.10923 17010 ft 239 kts 121°
2026-04-30 12:02 -12.09377 44.12355 17009 ft 239 kts 121°
2026-04-30 12:03 -12.10270 44.13786 17009 ft 239 kts 121°
2026-04-30 12:03 -12.12046 44.16636 17010 ft 239 kts 121°
2026-04-30 12:03 -12.12941 44.18069 17009 ft 239 kts 121°
2026-04-30 12:04 -12.13835 44.19506 17009 ft 239 kts 121°
2026-04-30 12:04 -12.14729 44.20939 17009 ft 239 kts 121°
2026-04-30 12:04 -12.15622 44.22372 17009 ft 239 kts 121°
2026-04-30 12:04 -12.16512 44.23802 17009 ft 239 kts 121°
2026-04-30 12:05 -12.17407 44.25234 17009 ft 239 kts 121°
2026-04-30 12:05 -12.18299 44.26666 17009 ft 239 kts 121°
2026-04-30 12:05 -12.19188 44.28095 17008 ft 238 kts 121°
2026-04-30 12:05 -12.20079 44.29526 17013 ft 238 kts 121°
2026-04-30 12:06 -12.20970 44.30956 17011 ft 239 kts 121°
2026-04-30 12:06 -12.21864 44.32391 17011 ft 239 kts 121°
2026-04-30 12:06 -12.22758 44.33827 17010 ft 240 kts 121°
2026-04-30 12:06 -12.23654 44.35270 17013 ft 240 kts 121°
2026-04-30 12:07 -12.24556 44.36712 17011 ft 241 kts 121°
2026-04-30 12:07 -12.25456 44.38159 17004 ft 241 kts 121°
2026-04-30 12:07 -12.26350 44.39601 17008 ft 240 kts 121°
2026-04-30 12:07 -12.27249 44.41043 17012 ft 240 kts 121°
2026-04-30 12:08 -12.28135 44.42470 17012 ft 240 kts 120°
2026-04-30 12:08 -12.29032 44.43909 16997 ft 239 kts 121°
2026-04-30 12:08 -12.29922 44.45343 16994 ft 238 kts 121°
2026-04-30 12:08 -12.30808 44.46766 17007 ft 236 kts 121°
2026-04-30 12:09 -12.31691 44.48186 17022 ft 237 kts 122°
2026-04-30 12:09 -12.32578 44.49607 17014 ft 237 kts 121°
2026-04-30 12:09 -12.33461 44.51031 17013 ft 238 kts 120°
2026-04-30 12:09 -12.34346 44.52461 17013 ft 238 kts 121°
2026-04-30 12:10 -12.35239 44.53896 17009 ft 239 kts 120°
2026-04-30 12:10 -12.36126 44.55326 17005 ft 238 kts 121°
2026-04-30 12:10 -12.37014 44.56757 17007 ft 237 kts 121°
2026-04-30 12:10 -12.37900 44.58181 17008 ft 237 kts 120°
2026-04-30 12:11 -12.38784 44.59607 17008 ft 237 kts 120°
2026-04-30 12:11 -12.39666 44.61027 17009 ft 237 kts 120°
2026-04-30 12:11 -12.40550 44.62451 17009 ft 237 kts 120°
2026-04-30 12:11 -12.41432 44.63873 17009 ft 237 kts 120°
2026-04-30 12:12 -12.42304 44.65278 17009 ft 237 kts 120°
2026-04-30 12:12 -12.43210 44.66734 16726 ft 243 kts 121°
2026-04-30 12:12 -12.44117 44.68190 16356 ft 248 kts 121°
2026-04-30 12:12 -12.45046 44.69691 15977 ft 252 kts 121°
2026-04-30 12:13 -12.45991 44.71221 15586 ft 254 kts 121°
2026-04-30 12:13 -12.46936 44.72742 15198 ft 253 kts 121°
2026-04-30 12:13 -12.47875 44.74262 14810 ft 252 kts 120°
2026-04-30 12:13 -12.48813 44.75775 14423 ft 251 kts 121°
2026-04-30 12:14 -12.49743 44.77279 14040 ft 250 kts 121°
2026-04-30 12:14 -12.50671 44.78779 13656 ft 249 kts 121°
2026-04-30 12:14 -12.51599 44.80275 13276 ft 249 kts 121°
2026-04-30 12:14 -12.52526 44.81772 12894 ft 249 kts 121°
2026-04-30 12:15 -12.53450 44.83265 12513 ft 248 kts 121°
2026-04-30 12:15 -12.54374 44.84760 12134 ft 248 kts 121°
2026-04-30 12:15 -12.55296 44.86248 11756 ft 248 kts 121°
2026-04-30 12:15 -12.56221 44.87740 11376 ft 248 kts 121°
2026-04-30 12:16 -12.57143 44.89231 10998 ft 247 kts 121°
2026-04-30 12:16 -12.58061 44.90714 10617 ft 247 kts 121°
2026-04-30 12:16 -12.58978 44.92198 10242 ft 246 kts 121°
2026-04-30 12:16 -12.59894 44.93679 9863 ft 246 kts 121°
2026-04-30 12:17 -12.61707 44.96605 9120 ft 232 kts 121°
2026-04-30 12:17 -12.62542 44.97956 8772 ft 216 kts 121°
2026-04-30 12:17 -12.63328 44.99231 8447 ft 211 kts 121°
2026-04-30 12:18 -12.64120 45.00511 8126 ft 215 kts 121°
2026-04-30 12:18 -12.64926 45.01815 7796 ft 218 kts 121°
2026-04-30 12:18 -12.65742 45.03138 7449 ft 220 kts 120°
2026-04-30 12:18 -12.66181 45.04607 7098 ft 220 kts 87°
2026-04-30 12:19 -12.65707 45.06091 6763 ft 222 kts 64°
2026-04-30 12:19 -12.64876 45.07424 6424 ft 224 kts 55°
2026-04-30 12:19 -12.63892 45.08653 6197 ft 220 kts 53°
2026-04-30 12:19 -12.63031 45.09909 5895 ft 212 kts 59°
2026-04-30 12:20 -12.62319 45.11151 5611 ft 194 kts 62°
2026-04-30 12:20 -12.61656 45.12364 5333 ft 197 kts 62°
2026-04-30 12:20 -12.60982 45.13601 5031 ft 200 kts 63°
2026-04-30 12:20 -12.60714 45.14965 4719 ft 201 kts 101°
2026-04-30 12:21 -12.61390 45.16197 4422 ft 202 kts 131°
2026-04-30 12:21 -12.62422 45.17186 4115 ft 204 kts 140°
2026-04-30 12:21 -12.63579 45.18017 3816 ft 196 kts 146°
2026-04-30 12:21 -12.64726 45.18703 3534 ft 187 kts 149°
2026-04-30 12:22 -12.65842 45.19333 3273 ft 178 kts 149°
2026-04-30 12:22 -12.66889 45.19918 3119 ft 166 kts 150°
2026-04-30 12:22 -12.67893 45.20481 2918 ft 165 kts 149°
2026-04-30 12:22 -12.68898 45.21057 2693 ft 164 kts 148°
2026-04-30 12:23 -12.69887 45.21634 2466 ft 162 kts 148°
2026-04-30 12:23 -12.70813 45.22179 2252 ft 153 kts 148°
2026-04-30 12:23 -12.71705 45.22706 2115 ft 136 kts 148°
2026-04-30 12:23 -12.72453 45.23150 2044 ft 117 kts 147°
2026-04-30 12:24 -12.73155 45.23560 1822 ft 118 kts 148°
2026-04-30 12:24 -12.73862 45.23959 1715 ft 115 kts 148°
2026-04-30 12:24 -12.74552 45.24360 1616 ft 117 kts 147°
2026-04-30 12:24 -12.75261 45.24803 1450 ft 121 kts 145°
2026-04-30 12:25 -12.75982 45.25259 1284 ft 122 kts 146°
2026-04-30 12:25 -12.76712 45.25701 1089 ft 122 kts 147°
2026-04-30 12:25 -12.77446 45.26139 856 ft 121 kts 148°
2026-04-30 12:25 -12.78171 45.26562 644 ft 117 kts 148°
2026-04-30 12:26 -12.78873 45.26973 464 ft 116 kts 147°
2026-04-30 12:26 -12.79565 45.27399 277 ft 116 kts 147°
2026-04-30 12:26 -12.80260 45.27818 112 ft 115 kts 148°
2026-04-30 12:26 -12.80896 45.28203 45 ft 101 kts 145°
2026-04-30 12:27 -12.81231 45.28415 59 ft 35 kts 163°
2026-04-30 12:27 -12.81415 45.28493 57 ft 25 kts 150°
2026-04-30 12:27 -12.81542 45.28574 65 ft 18 kts 147°
2026-04-30 12:27 -12.81628 45.28610 65 ft 10 kts 177°
2026-04-30 12:28 -12.81672 45.28620 63 ft 2 kts 102°
2026-04-30 12:28 -12.81622 45.28633 60 ft 16 kts 336°
2026-04-30 12:28 -12.81471 45.28536 60 ft 51 kts 332°
2026-04-30 12:28 -12.80985 45.28254 49 ft 108 kts 333°
2026-04-30 12:29 -12.80547 45.27986 42 ft 25 kts 331°
2026-04-30 12:29 -12.80438 45.28002 42 ft 15 kts 60°
2026-04-30 12:29 -12.80407 45.28058 43 ft 7 kts 60°
2026-04-30 12:29 -12.80385 45.28102 43 ft 5 kts 76°
2026-04-30 12:30 -12.80392 45.28136 43 ft 5 kts 114°
2026-04-30 12:30 -12.80420 45.28158 43 ft 6 kts 145°
2026-04-30 12:30 -12.80427 45.28192 43 ft 5 kts 75°
2026-04-30 12:30 -12.80415 45.28214 41 ft 4 kts 61°
2026-04-30 12:31 -12.80401 45.28239 41 ft 3 kts 61°
2026-04-30 12:31 -12.80400 45.28240 44 ft 0 kts 61°